User: anonymous   Login
Location: Kapla
(46.2483°N, 15.0094°E)
Time: 23:18:17
(UTC+00:00)
Language:

SJ-6B - Orbit

View from above orbital plane
View from above orbital plane
View from above satellite
View from above satellite

Ground track
Ground track

The orbit data is extracted from the following two-line orbital elements,

1 28415U 04035C   21125.74266634  .00000393  00000-0  29787-4 0  9993
2 28415  97.5692 168.9862 0050565 334.7118  25.1635 15.07097580912172
Epoch (UTC): 05 May 2021 17:49:26
Eccentricity: 0.0050565
inclination: 97.5692°
perigee height: 510 km
apogee height: 580 km
right ascension of ascending node: 168.9862°
argument of perigee: 334.7118°
revolutions per day: 15.07097580
mean anomaly at epoch: 25.1635°
orbit number at epoch: 91217

The dashed part of the orbit path shows where the satellite is in the earth's shadow,  

DLR